Location: Home
(42.5358°N, 72.7383°W)
Time: 21:13:59
(UTC-05:00)

Vanguard 2 - Pass Details

Date: 04 December 2021
Orbit: 553 x 2936 km, 32.9° (Epoch: 20 January)

Event Time Altitude Azimuth Distance (km) Brightness Sun altitude
Rises 13:00:25 0° 229° (SW) 2,810 11.4 22.6°
Reaches altitude 10° 13:02:46 10° 214° (SW) 2,034 11.5 22.5°
Maximum altitude 13:06:29 24° 160° (SSE) 1,551 10.1 22.2°
Drops below altitude 10° 13:11:26 10° 108° (ESE) 2,783 10.4 21.9°
Sets 13:15:17 0° 96° (E) 4,149 11.1 21.6°
